Date String (YYYY-MM-DD hh:mm:ss) UTC,Instrument flags,absolute air pressure of the measurement (hPa),sample flow rate (lpm),inlet stack bypass flow (lpm),air temperature of the measurement (°C),ambient temperature measured by the external sensor (°C),aerosol sample conditioner tube jacket temperature (°C),OPC LED temperature (°C),internal box temperature (°C),relative humidity of the measurement (%),span deviation,mass concentration of particles derived from Lorenz-Mie calculation of OPC scattering (μg/m³),mass concentration of particles derived from Lorenz-Mie calculation of OPC scattering (μg/m³),mass concentration of particles derived from Lorenz-Mie calculation of OPC scattering (μg/m³)
DateTimeUTC,F1_M11,P_M11,Q1_M11,Q2_M11,T1_M11,T2_M11,T3_M11,T4_M11,T5_M11,U1_M11,ZSPAN_M11,X2_M11,X0_M11,X1_M11
2024-01-09 01:00:00,SystemResetWarning,0824.6,4.99,000.00,020.3,019.5,000.0,028.6,021.3,6.8,0000.0,0001.03,0004.11,0000.60
2024-01-09 01:01:00,SystemResetWarning,0824.6,4.99,000.00,020.2,019.4,000.0,028.6,021.2,6.9,0000.0,0001.01,0004.16,0000.60
2024-01-09 01:02:00,SystemResetWarning,0824.6,5.00,000.00,020.2,019.4,000.0,028.6,021.2,6.9,0000.0,0000.96,0004.14,0000.60
2024-01-09 01:03:00,SystemResetWarning,0824.6,5.01,000.00,020.2,019.3,000.0,028.6,021.1,6.9,0000.0,0000.97,0004.16,0000.61
2024-01-09 01:04:00,SystemResetWarning,0824.7,5.00,000.00,020.1,019.2,000.0,028.6,021.0,7.0,0000.0,0000.93,0004.67,0000.61
2024-01-09 01:05:00,SystemResetWarning,0824.7,5.00,000.00,020.1,019.2,000.0,028.6,021.0,7.0,0000.0,0000.94,0004.77,0000.62
2024-01-09 01:06:00,SystemResetWarning,0824.7,5.00,000.00,020.0,019.1,000.0,028.5,021.0,7.0,0000.0,0000.96,0004.91,0000.63
2024-01-09 01:07:00,SystemResetWarning,0824.7,5.00,000.00,020.0,019.0,000.0,028.5,020.9,7.1,0000.0,0000.95,0004.79,0000.64
2024-01-09 01:08:00,SystemResetWarning,0824.7,5.00,000.00,020.0,018.9,000.0,028.5,020.9,7.1,0000.0,0000.95,0004.87,0000.64
2024-01-09 01:09:00,SystemResetWarning,0824.7,5.00,000.00,019.9,018.9,000.0,028.5,020.9,7.1,0000.0,0000.92,0003.63,0000.64
2024-01-09 01:10:00,SystemResetWarning,0824.7,5.01,000.00,019.9,018.9,000.0,028.4,020.9,7.2,0000.0,0000.90,0002.67,0000.66
2024-01-09 01:11:00,SystemResetWarning,0824.7,5.00,000.00,019.9,018.9,000.0,028.4,020.9,7.2,0000.0,0000.96,0002.77,0000.67
2024-01-09 01:12:00,SystemResetWarning,0824.7,5.00,000.00,019.9,018.9,000.0,028.4,020.9,7.2,0000.0,0000.99,0002.72,0000.68
2024-01-09 01:13:00,SystemResetWarning,0824.7,5.00,000.00,019.9,018.9,000.0,028.4,021.0,7.2,0000.0,0000.99,0002.56,0000.70
2024-01-09 01:14:00,SystemResetWarning,0824.7,5.00,000.00,019.9,019.0,000.0,028.4,021.0,7.2,0000.0,0001.00,0002.56,0000.70
2024-01-09 01:15:00,SystemResetWarning,0824.8,5.00,000.00,019.9,019.0,000.0,028.3,021.0,7.2,0000.0,0001.02,0001.93,0000.72
2024-01-09 01:16:00,SystemResetWarning,0824.8,5.00,000.00,019.9,019.1,000.0,028.3,021.0,7.3,0000.0,0001.08,0001.96,0000.73
2024-01-09 01:17:00,SystemResetWarning,0824.7,5.01,000.00,019.9,019.1,000.0,028.3,021.0,7.4,0000.0,0001.08,0001.85,0000.73
2024-01-09 01:18:00,SystemResetWarning,0824.7,4.99,000.00,019.9,019.1,000.0,028.3,020.9,7.5,0000.0,0001.10,0001.81,0000.75
2024-01-09 01:19:00,SystemResetWarning,0824.7,4.99,000.00,019.9,019.1,000.0,028.3,020.9,7.6,0000.0,0001.14,0001.79,0000.76
2024-01-09 01:20:00,SystemResetWarning,0824.7,5.01,000.00,019.9,019.0,000.0,028.3,020.7,7.7,0000.0,0001.21,0002.18,0000.78
2024-01-09 01:21:00,SystemResetWarning,0824.7,5.00,000.00,019.8,018.9,000.0,028.3,020.7,7.8,0000.0,0001.24,0002.60,0000.78
2024-01-09 01:22:00,SystemResetWarning,0824.8,5.01,000.00,019.8,018.8,000.0,028.2,020.7,8.0,0000.0,0001.20,0002.58,0000.78
2024-01-09 01:23:00,SystemResetWarning,0824.8,5.00,000.00,019.8,018.8,000.0,028.2,020.7,8.2,0000.0,0001.17,0002.52,0000.77
2024-01-09 01:24:00,SystemResetWarning,0824.7,4.99,000.00,019.7,018.7,000.0,028.2,020.6,8.4,0000.0,0001.17,0002.56,0000.77
2024-01-09 01:25:00,SystemResetWarning,0824.7,5.00,000.00,019.7,018.7,000.0,028.2,020.6,8.5,0000.0,0001.17,0002.59,0000.77
2024-01-09 01:26:00,SystemResetWarning,0824.8,5.00,000.00,019.6,018.6,000.0,028.2,020.6,8.6,0000.0,0001.15,0002.57,0000.76
2024-01-09 01:27:00,SystemResetWarning,0824.7,5.01,000.00,019.6,018.6,000.0,028.1,020.6,8.7,0000.0,0001.10,0003.54,0000.75
2024-01-09 01:28:00,SystemResetWarning,0824.7,5.00,000.00,019.6,018.6,000.0,028.1,020.6,8.7,0000.0,0001.14,0004.15,0000.76
2024-01-09 01:29:00,SystemResetWarning,0824.7,5.00,000.00,019.6,018.5,000.0,028.1,020.5,8.8,0000.0,0001.19,0004.54,0000.78
2024-01-09 01:30:00,SystemResetWarning,0824.8,5.00,000.00,019.6,018.4,000.0,028.1,020.5,8.9,0000.0,0001.23,0004.68,0000.81
2024-01-09 01:31:00,SystemResetWarning,0824.8,4.99,000.00,019.5,018.4,000.0,028.0,020.5,8.9,0000.0,0001.28,0004.67,0000.85
2024-01-09 01:32:00,SystemResetWarning,0824.7,4.99,000.00,019.5,018.4,000.0,028.0,020.5,8.9,0000.0,0001.37,0004.43,0000.90
2024-01-09 01:33:00,SystemResetWarning,0824.8,5.00,000.00,019.5,018.4,000.0,028.0,020.5,8.9,0000.0,0001.50,0004.92,0000.95
2024-01-09 01:34:00,SystemResetWarning,0824.8,5.00,000.00,019.5,018.4,000.0,028.0,020.6,8.8,0000.0,0001.65,0006.29,0001.03
2024-01-09 01:35:00,SystemResetWarning,0824.8,5.01,000.00,019.5,018.4,000.0,028.0,020.6,8.8,0000.0,0001.76,0006.45,0001.12
2024-01-09 01:36:00,SystemResetWarning,0824.8,5.01,000.00,019.5,018.4,000.0,028.0,020.6,8.7,0000.0,0001.88,0006.59,0001.21
2024-01-09 01:37:00,SystemResetWarning,0824.7,5.00,000.00,019.5,018.5,000.0,028.0,020.5,8.7,0000.0,0002.04,0006.90,0001.32
2024-01-09 01:38:00,SystemResetWarning,0824.8,5.00,000.00,019.5,018.5,000.0,027.9,020.5,8.6,0000.0,0002.20,0007.70,0001.40
2024-01-09 01:39:00,SystemResetWarning,0824.7,5.00,000.00,019.5,018.5,000.0,027.9,020.5,8.6,0000.0,0002.29,0007.47,0001.49
2024-01-09 01:40:00,SystemResetWarning,0824.7,5.00,000.00,019.5,018.5,000.0,027.9,020.5,8.5,0000.0,0002.37,0007.88,0001.56
2024-01-09 01:41:00,SystemResetWarning,0824.7,5.00,000.00,019.5,018.5,000.0,027.9,020.6,8.4,0000.0,0002.45,0008.44,0001.60
2024-01-09 01:42:00,SystemResetWarning,0824.7,5.00,000.00,019.5,018.5,000.0,027.9,020.5,8.4,0000.0,0002.44,0008.62,0001.63
2024-01-09 01:43:00,SystemResetWarning,0824.7,5.00,000.00,019.5,018.4,000.0,027.9,020.4,8.4,0000.0,0002.44,0008.70,0001.65
2024-01-09 01:44:00,SystemResetWarning,0824.8,5.01,000.00,019.4,018.4,000.0,027.9,020.4,8.3,0000.0,0002.44,0008.63,0001.67
2024-01-09 01:45:00,SystemResetWarning,0824.8,5.01,000.00,019.4,018.4,000.0,027.8,020.3,8.3,0000.0,0002.38,0007.85,0001.66
2024-01-09 01:46:00,SystemResetWarning,0824.8,5.01,000.00,019.4,018.3,000.0,027.8,020.3,8.3,0000.0,0002.37,0007.87,0001.63
2024-01-09 01:47:00,SystemResetWarning,0824.8,5.00,000.00,019.4,018.3,000.0,027.8,020.3,8.2,0000.0,0002.38,0007.90,0001.59
2024-01-09 01:48:00,SystemResetWarning,0824.8,4.99,000.00,019.4,018.3,000.0,027.8,020.4,8.2,0000.0,0002.39,0007.98,0001.54
2024-01-09 01:49:00,SystemResetWarning,0824.8,5.00,000.00,019.4,018.3,000.0,027.8,020.4,8.1,0000.0,0002.33,0007.29,0001.50
2024-01-09 01:50:00,SystemResetWarning,0824.8,5.00,000.00,019.4,018.3,000.0,027.8,020.4,8.0,0000.0,0002.30,0007.56,0001.46
2024-01-09 01:51:00,SystemResetWarning,0824.8,4.99,000.00,019.4,018.4,000.0,027.8,020.4,8.0,0000.0,0002.24,0007.33,0001.41
2024-01-09 01:52:00,SystemResetWarning,0824.8,4.99,000.00,019.4,018.4,000.0,027.8,020.3,8.0,0000.0,0002.20,0006.09,0001.39
2024-01-09 01:53:00,SystemResetWarning,0824.8,5.00,000.00,019.3,018.4,000.0,027.7,020.3,8.0,0000.0,0002.21,0006.89,0001.36
2024-01-09 01:54:00,SystemResetWarning,0824.8,5.01,000.00,019.3,018.3,000.0,027.7,020.3,8.0,0000.0,0002.17,0007.83,0001.33
2024-01-09 01:55:00,SystemResetWarning,0824.9,5.00,000.00,019.3,018.3,000.0,027.7,020.3,8.0,0000.0,0002.06,0007.68,0001.28
2024-01-09 01:56:00,SystemResetWarning,0824.8,4.99,000.00,019.3,018.3,000.0,027.7,020.3,8.0,0000.0,0002.05,0007.69,0001.25
2024-01-09 01:57:00,SystemResetWarning,0824.9,5.00,000.00,019.3,018.2,000.0,027.7,020.3,8.0,0000.0,0002.01,0007.63,0001.22
2024-01-09 01:58:00,SystemResetWarning,0824.9,4.99,000.00,019.3,018.2,000.0,027.7,020.3,8.0,0000.0,0001.94,0007.61,0001.20
2024-01-09 01:59:00,SystemResetWarning,0824.9,5.00,000.00,019.3,018.2,000.0,027.7,020.3,8.0,0000.0,0001.86,0007.83,0001.18
